Regional Weather Roundup
Issued by NWS

Home | Current Version | Previous Version | Text Only | Print | Product List | Glossary On
Versions: 1 2 3 4 5 6 7 8 9 10 11 12 13 14 15 16 17 18 19 20 21 22 23 24 25 26 27 28 29 30 31 32 33 34 35 36 37 38 39 40 41 42 43 44 45 46 47 48 49 50
000
ASUS43 KTOP 231708
RWRKS

WEATHER ROUNDUP FOR KANSAS
NATIONAL WEATHER SERVICE GOODLAND KS
1200 PM CDT SAT AUG 23 2014

NOTE:  "FAIR" INDICATES FEW OR NO CLOUDS BELOW 12,000 FEET WITH NO
SIGNIFICANT WEATHER AND/OR OBSTRUCTIONS TO VISIBILITY.

KSZ001>006-013>018-027>032-041>047-231800-
NORTHWEST KANSAS

CITY           SKY/WX    TMP DP  RH WIND       PRES   REMARKS
GOODLAND       PTSUNNY   75  62  64 SE3       29.90F
HAYS           SUNNY     88  63  42 S22       29.85F
HILL CITY      SUNNY     85  66  53 S12       29.83F
RUSSELL        SUNNY     91  61  36 S23       29.84F
$$

KSZ061>065-074>080-084>089-231800-
SOUTHWEST KANSAS

CITY           SKY/WX    TMP DP  RH WIND       PRES   REMARKS
DODGE CITY     SUNNY     87  59  38 SW22G35   29.90F
ELKHART          N/A     87  53  31 SW13        N/A
GARDEN CITY    PTSUNNY   82  62  50 SW17      29.89R
GREAT BEND     SUNNY     91  61  35 S17G24    29.86F
LIBERAL        MOSUNNY   84  61  45 SW18      29.93S
PRATT          SUNNY     90  55  31 SW16      29.91F
$$

KSZ066>073-081>083-090>101-231800-
SOUTHEAST KANSAS

CITY           SKY/WX    TMP DP  RH WIND       PRES   REMARKS
CHANUTE        SUNNY     94  62  34 SW18      29.94F
COFFEYVILLE    SUNNY     94  65  38 SW13G23   29.94F HX  96
HUTCHINSON     SUNNY     91  60  35 S12       29.89F
MEDICINE LODGE   N/A     93  59  31 S16       29.88F
NEWTON         SUNNY     90  57  33 S18       29.94S
PARSONS        SUNNY     94  66  39 SW10      29.96F HX  97
WICHITA INTL   SUNNY     92  57  30 S17       29.90F
WICHITA JABRA  SUNNY     90  59  35 S18       29.91S
WICHITA MCCONL SUNNY     91  58  32 S18       29.92S
WINFIELD       SUNNY     95  59  30 S15G24    29.93F
$$

KSZ007>012-019>026-033>040-048>060-102>105-231800-
NORTHEAST KANSAS

CITY           SKY/WX    TMP DP  RH WIND       PRES   REMARKS
CONCORDIA      SUNNY     86  69  56 S9        29.85F
EMPORIA        SUNNY     93  62  35 S20       29.90F
LAWRENCE       SUNNY     95  66  38 S7        29.89F HX  98
MANHATTAN      SUNNY     93  62  35 S10       29.86F
MARYSVILLE     SUNNY     86  68  54 S9        29.86F
OLATHE IND     SUNNY     93  66  40 S15       29.91F HX  96
OLATHE EXE     SUNNY     89  71  55 S10       29.91F HX  95
SALINA         SUNNY     94  63  35 S13       29.86F HX  95
TOPEKA BILLARD SUNNY     92  66  42 S9        29.88F
TOPEKA FORBES  SUNNY     92  62  36 S13       29.89F
$$


USA.gov is the U.S. government's official web portal to all federal, state and local government web resources and services.